User: anonymous   Login
Location: Miami, Florida
(25.6830°N, 80.1700°W)
Time: 16:36:28
(UTC-04:00)
Language:

Tiangong 1 - Orbit

View from above orbital plane
View from above orbital plane
View from above satellite
View from above satellite

Ground track
Ground track

The orbit data is extracted from the following two-line orbital elements,

1 37820U 11053A   18020.15510531  .00067495  10227-4  13009-3 0  9995
2 37820  42.7520 294.3572 0018803 206.9024 296.9780 15.99797597362456
Epoch (UTC): 20 January 2018 03:43:21
Eccentricity: 0.0018803
inclination: 42.7520°
perigee height: 262 km
apogee height: 287 km
right ascension of ascending node: 294.3572°
argument of perigee: 206.9024°
revolutions per day: 15.99797597
mean anomaly at epoch: 296.9780°
orbit number at epoch: 36245

The dashed part of the orbit path shows where the satellite is in the earth's shadow,  

DLR